Date String (YYYY-MM-DD hh:mm:ss) UTC,Instrument flags,absolute air pressure of the measurement (hPa),sample flow rate (lpm),inlet stack bypass flow (lpm),air temperature of the measurement (°C),ambient temperature measured by the external sensor (°C),aerosol sample conditioner tube jacket temperature (°C),OPC LED temperature (°C),internal box temperature (°C),relative humidity of the measurement (%),span deviation,mass concentration of particles derived from Lorenz-Mie calculation of OPC scattering (μg/m³),mass concentration of particles derived from Lorenz-Mie calculation of OPC scattering (μg/m³),mass concentration of particles derived from Lorenz-Mie calculation of OPC scattering (μg/m³)
DateTimeUTC,F1_M11,P_M11,Q1_M11,Q2_M11,T1_M11,T2_M11,T3_M11,T4_M11,T5_M11,U1_M11,ZSPAN_M11,X0_M11,X2_M11,X1_M11
2024-04-22 20:00:00,SystemResetWarning,0824.0,5.01,000.00,025.1,023.8,000.0,033.5,026.9,018.9,0003.2,0011.27,0005.81,0005.19
2024-04-22 20:01:00,SystemResetWarning,0824.0,5.00,000.00,025.1,024.1,000.0,033.5,027.0,019.1,0003.3,0011.57,0005.71,0005.11
2024-04-22 20:02:00,SystemResetWarning,0824.0,5.00,000.00,025.2,024.3,000.0,033.5,027.1,019.0,0003.0,0012.34,0005.68,0005.05
2024-04-22 20:03:00,SystemResetWarning,0824.0,5.00,000.00,025.3,024.5,000.0,033.5,027.2,018.4,0003.7,0012.59,0005.65,0005.02
2024-04-22 20:04:00,SystemResetWarning,0824.0,5.00,000.00,025.4,024.6,000.0,033.6,027.3,018.6,0001.0,0012.60,0005.63,0005.02
2024-04-22 20:05:00,SystemResetWarning,0824.0,4.99,000.00,025.4,024.7,000.0,033.6,027.3,017.9,0000.0,0012.67,0005.65,0004.99
2024-04-22 20:06:00,SystemResetWarning,0824.0,4.99,000.00,025.5,024.9,000.0,033.6,027.4,017.7,0000.0,0012.86,0005.66,0004.96
2024-04-22 20:07:00,SystemResetWarning,0823.9,5.00,000.00,025.6,025.0,000.0,033.7,027.5,018.7,0000.7,0013.47,0005.62,0004.91
2024-04-22 20:08:00,SystemResetWarning,0824.0,5.00,000.00,025.6,025.1,000.0,033.7,027.6,018.1,0000.0,0014.42,0005.61,0004.85
2024-04-22 20:09:00,SystemResetWarning,0824.0,5.00,000.00,025.7,025.2,000.0,033.8,027.6,017.7,0000.0,0013.97,0005.58,0004.82
2024-04-22 20:10:00,SystemResetWarning,0823.9,5.00,000.00,025.8,025.2,000.0,033.8,027.7,017.4,0000.0,0014.15,0005.57,0004.80
2024-04-22 20:11:00,SystemResetWarning,0824.0,5.00,000.00,025.8,025.0,000.0,033.9,027.5,017.7,0000.0,0015.16,0005.56,0004.79
2024-04-22 20:12:00,SystemResetWarning,0823.9,4.99,000.00,025.5,023.1,000.0,033.9,026.4,017.7,0000.0,0014.79,0005.56,0004.79
2024-04-22 20:13:00,SystemResetWarning,0823.8,5.02,000.00,025.1,021.8,000.0,033.9,025.5,017.9,0000.0,0014.43,0005.59,0004.81
2024-04-22 20:14:00,SystemResetWarning,0823.8,4.99,000.00,024.9,022.1,000.0,033.8,025.6,019.5,0000.0,0014.70,0005.60,0004.81
2024-04-22 20:15:00,SystemResetWarning,0823.8,5.00,000.00,024.8,022.5,000.0,033.6,025.9,020.1,0000.0,0015.09,0005.57,0004.78
2024-04-22 20:16:00,SystemResetWarning,0823.8,5.00,000.00,024.8,022.8,000.0,033.6,026.2,017.8,0000.6,0014.96,0005.48,0004.71
2024-04-22 20:17:00,SystemResetWarning,0823.8,5.00,000.00,024.9,023.2,000.0,033.5,026.5,017.9,0002.5,0014.66,0005.38,0004.63
2024-04-22 20:18:00,SystemResetWarning,0823.8,5.00,000.00,025.0,023.5,000.0,033.5,026.7,018.3,0003.8,0014.21,0005.32,0004.56
2024-04-22 20:19:00,SystemResetWarning,0823.8,4.99,000.00,025.0,023.8,000.0,033.5,026.8,018.1,0003.7,0013.22,0005.25,0004.50
2024-04-22 20:20:00,SystemResetWarning,0823.8,5.00,000.00,025.1,024.0,000.0,033.5,027.0,017.7,0000.8,0013.11,0005.17,0004.42
2024-04-22 20:21:00,SystemResetWarning,0823.8,5.00,000.00,025.2,024.2,000.0,033.5,027.1,018.8,0000.0,0012.72,0005.14,0004.36
2024-04-22 20:22:00,SystemResetWarning,0823.8,5.00,000.00,025.3,024.4,000.0,033.5,027.2,018.6,0000.0,0011.86,0005.08,0004.29
2024-04-22 20:23:00,SystemResetWarning,0823.8,5.00,000.00,025.3,024.6,000.0,033.5,027.2,018.7,0000.0,0012.03,0005.05,0004.22
2024-04-22 20:24:00,SystemResetWarning,0823.8,5.01,000.00,025.4,024.7,000.0,033.5,027.3,018.5,0000.0,0011.60,0004.96,0004.14
2024-04-22 20:25:00,SystemResetWarning,0823.8,5.01,000.00,025.5,024.9,000.0,033.6,027.4,018.0,0000.0,0011.06,0004.89,0004.06
2024-04-22 20:26:00,SystemResetWarning,0823.8,5.00,000.00,025.5,025.0,000.0,033.6,027.5,017.5,0000.0,0010.29,0004.83,0004.00
2024-04-22 20:27:00,SystemResetWarning,0823.9,4.99,000.00,025.6,025.0,000.0,033.7,027.5,018.2,0000.0,0011.68,0004.81,0003.97
2024-04-22 20:28:00,SystemResetWarning,0824.0,4.99,000.00,025.7,025.1,000.0,033.7,027.6,017.7,0000.0,0012.09,0004.80,0003.95
2024-04-22 20:29:00,SystemResetWarning,0823.9,5.01,000.00,025.7,025.2,000.0,033.8,027.7,018.3,0000.0,0011.75,0004.78,0003.93
2024-04-22 20:30:00,SystemResetWarning,0823.8,4.99,000.00,025.7,024.5,000.0,033.8,027.3,018.0,0000.0,0011.28,0004.70,0003.89
2024-04-22 20:31:00,SystemResetWarning,0823.7,5.00,000.00,025.3,022.4,000.0,033.9,026.0,018.0,0000.0,0011.32,0004.64,0003.85
2024-04-22 20:32:00,SystemResetWarning,0823.6,5.01,000.00,024.9,021.8,000.0,033.8,025.5,018.0,0000.0,0011.67,0004.52,0003.77
2024-04-22 20:33:00,SystemResetWarning,0823.5,5.00,000.00,024.8,022.2,000.0,033.7,025.7,017.8,0000.0,0011.19,0004.43,0003.71
2024-04-22 20:34:00,SystemResetWarning,0823.6,5.00,000.00,024.8,022.6,000.0,033.6,026.1,016.4,0000.0,0010.72,0004.32,0003.68
2024-04-22 20:35:00,SystemResetWarning,0823.6,5.01,000.00,024.9,023.0,000.0,033.5,026.4,016.1,0000.0,0010.56,0004.19,0003.61
2024-04-22 20:36:00,SystemResetWarning,0823.6,4.99,000.00,024.9,023.3,000.0,033.5,026.6,017.4,0000.0,0010.71,0004.08,0003.53
2024-04-22 20:37:00,SystemResetWarning,0823.6,4.99,000.00,025.0,023.6,000.0,033.5,026.7,017.9,0000.0,0011.21,0003.97,0003.45
2024-04-22 20:38:00,SystemResetWarning,0823.7,5.00,000.00,025.1,023.9,000.0,033.4,026.9,018.9,0000.0,0010.14,0003.90,0003.39
2024-04-22 20:39:00,SystemResetWarning,0823.8,5.01,000.00,025.1,024.1,000.0,033.5,027.0,018.2,0000.0,0009.90,0003.82,0003.34
2024-04-22 20:40:00,SystemResetWarning,0823.7,5.01,000.00,025.2,024.3,000.0,033.5,027.1,017.4,0000.0,0010.49,0003.75,0003.30
2024-04-22 20:41:00,SystemResetWarning,0823.8,5.00,000.00,025.3,024.5,000.0,033.5,027.2,017.6,0000.0,0010.53,0003.72,0003.25
2024-04-22 20:42:00,SystemResetWarning,0823.6,5.00,000.00,025.3,024.6,000.0,033.5,027.3,017.2,0000.0,0009.98,0003.71,0003.22
2024-04-22 20:43:00,SystemResetWarning,0823.6,5.00,000.00,025.4,024.8,000.0,033.5,027.4,017.0,0000.0,0009.70,0003.72,0003.21
2024-04-22 20:44:00,SystemResetWarning,0823.8,5.00,000.00,025.5,024.9,000.0,033.6,027.4,017.0,0000.0,0009.97,0003.72,0003.17
2024-04-22 20:45:00,SystemResetWarning,0823.7,5.00,000.00,025.6,025.0,000.0,033.6,027.5,015.4,0000.0,0010.18,0003.72,0003.12
2024-04-22 20:46:00,SystemResetWarning,0823.6,5.01,000.00,025.6,025.1,000.0,033.7,027.6,016.1,0000.0,0010.65,0003.74,0003.09
2024-04-22 20:47:00,SystemResetWarning,0823.5,4.99,000.00,025.7,025.1,000.0,033.7,027.6,016.5,0000.0,0010.63,0003.78,0003.09
2024-04-22 20:48:00,SystemResetWarning,0823.3,4.98,000.00,025.5,023.6,000.0,033.8,026.6,016.5,0000.0,0010.12,0003.80,0003.09
2024-04-22 20:49:00,SystemResetWarning,0822.9,5.01,000.00,025.0,021.8,000.0,033.8,025.6,013.1,0000.0,0009.47,0003.75,0003.06
2024-04-22 20:50:00,SystemResetWarning,0822.7,5.01,000.00,024.8,021.9,000.0,033.7,025.5,012.0,0000.0,0009.40,0003.74,0002.98
2024-04-22 20:51:00,SystemResetWarning,0823.1,4.99,000.00,024.7,022.3,000.0,033.6,025.8,013.6,0000.0,0009.80,0003.73,0002.89
2024-04-22 20:52:00,SystemResetWarning,0823.2,5.00,000.00,024.8,022.7,000.0,033.5,026.2,014.3,0000.0,0010.71,0003.71,0002.81
2024-04-22 20:53:00,SystemResetWarning,0823.4,5.01,000.00,024.8,023.1,000.0,033.4,026.4,015.2,0000.0,0010.98,0003.71,0002.76
2024-04-22 20:54:00,SystemResetWarning,0823.4,5.00,000.00,024.9,023.4,000.0,033.4,026.6,015.5,0000.0,0010.70,0003.64,0002.69
2024-04-22 20:55:00,SystemResetWarning,0823.4,4.99,000.00,025.0,023.7,000.0,033.4,026.7,015.9,0000.0,0010.45,0003.61,0002.67
2024-04-22 20:56:00,SystemResetWarning,0823.4,5.01,000.00,025.0,024.0,000.0,033.4,026.9,016.4,0000.0,0010.41,0003.61,0002.65
2024-04-22 20:57:00,SystemResetWarning,0823.4,5.00,000.00,025.1,024.2,000.0,033.4,027.0,017.0,0000.0,0009.95,0003.62,0002.63
2024-04-22 20:58:00,SystemResetWarning,0823.4,5.00,000.00,025.2,024.4,000.0,033.4,027.1,016.4,0000.0,0009.66,0003.59,0002.60
2024-04-22 20:59:00,SystemResetWarning,0823.4,5.00,000.00,025.2,024.5,000.0,033.4,027.2,016.8,0000.0,0009.51,0003.53,0002.54
